• In Hungary
  • List of Countries
  • For 7 days
  • Water Temperature
  • Satellite Maps
  • Weather Map
  • News
  • Weather Widgets
  • user-avatar
    Login

    Hourly Weather Kristianstad

    Today, 24 May, Thursday

    Time Temperature Precipitation Wind Pressure Humidity
    00:00 +14°C° 0 mm 1 mps 770 mmHg 75%
    01:00 +14°C° 0 mm 1 mps 770 mmHg 75%
    02:00 +13°C° 0 mm 1 mps 771 mmHg 74%
    03:00 +13°C° 0 mm 1 mps 771 mmHg 74%
    04:00 +12°C° 0 mm 1 mps 771 mmHg 74%
    05:00 +14°C° 0 mm 2 mps 771 mmHg 68%
    06:00 +16°C° 0 mm 2 mps 771 mmHg 62%
    07:00 +18°C° 0 mm 2 mps 771 mmHg 57%
    08:00 +20°C° 0 mm 2 mps 771 mmHg 52%
    09:00 +22°C° 0 mm 3 mps 771 mmHg 47%
    10:00 +24°C° 0 mm 3 mps 771 mmHg 42%
    11:00 +25°C° 0 mm 4 mps 771 mmHg 40%
    12:00 +25°C° 0 mm 4 mps 771 mmHg 39%
    13:00 +26°C° 0 mm 5 mps 771 mmHg 38%
    14:00 +25°C° 0 mm 5 mps 771 mmHg 39%
    15:00 +23°C° 0 mm 5 mps 770 mmHg 41%
    16:00 +23°C° 0 mm 5 mps 770 mmHg 42%
    17:00 +21°C° 0 mm 4 mps 770 mmHg 47%
    18:00 +20°C° 0 mm 4 mps 770 mmHg 52%
    19:00 +18°C° 0 mm 3 mps 770 mmHg 57%
    20:00 +16°C° 0 mm 3 mps 770 mmHg 61%
    21:00 +14°C° 0 mm 3 mps 770 mmHg 65%
    22:00 +13°C° 0 mm 2 mps 770 mmHg 68%
    23:00 +12°C° 0 mm 2 mps 770 mmHg 67%

    Tomorrow, 25 May, Friday

    Time Temperature Precipitation Wind Pressure Humidity
    00:00 +12°C° 0 mm 2 mps 770 mmHg 66%
    01:00 +12°C° 0 mm 2 mps 771 mmHg 65%
    02:00 +12°C° 0 mm 2 mps 770 mmHg 66%
    03:00 +12°C° 0 mm 2 mps 770 mmHg 67%
    04:00 +10°C° 0 mm 3 mps 770 mmHg 68%
    05:00 +12°C° 0 mm 3 mps 770 mmHg 63%
    06:00 +14°C° 0 mm 3 mps 770 mmHg 58%
    07:00 +17°C° 0 mm 3 mps 770 mmHg 53%
    08:00 +19°C° 0 mm 4 mps 770 mmHg 46%
    09:00 +20°C° 0 mm 4 mps 770 mmHg 40%
    10:00 +22°C° 0 mm 4 mps 769 mmHg 34%
    11:00 +22°C° 0 mm 4 mps 769 mmHg 35%
    12:00 +23°C° 0 mm 4 mps 769 mmHg 36%
    13:00 +25°C° 0 mm 4 mps 769 mmHg 37%
    14:00 +25°C° 0 mm 4 mps 769 mmHg 39%
    15:00 +23°C° 0 mm 4 mps 769 mmHg 42%
    16:00 +23°C° 0 mm 4 mps 768 mmHg 44%
    17:00 +22°C° 0 mm 4 mps 768 mmHg 50%
    18:00 +21°C° 0 mm 4 mps 768 mmHg 56%
    19:00 +19°C° 0 mm 3 mps 768 mmHg 62%
    20:00 +18°C° 0 mm 3 mps 768 mmHg 69%
    21:00 +16°C° 0 mm 3 mps 769 mmHg 76%
    22:00 +13°C° 0 mm 3 mps 769 mmHg 84%
    23:00 +13°C° 0 mm 3 mps 769 mmHg 84%

    Day after tomorrow, 26 May, Saturday

    Time Temperature Precipitation Wind Pressure Humidity
    00:00 +13°C° 0 mm 3 mps 769 mmHg 84%
    01:00 +12°C° 0 mm 3 mps 769 mmHg 85%
    02:00 +13°C° 0 mm 3 mps 769 mmHg 83%
    03:00 +13°C° 0 mm 3 mps 768 mmHg 81%
    04:00 +13°C° 0 mm 3 mps 768 mmHg 79%
    05:00 +14°C° 0.1 mm 4 mps 768 mmHg 77%
    06:00 +15°C° 0.1 mm 4 mps 768 mmHg 76%
    07:00 +18°C° 0.1 mm 4 mps 768 mmHg 74%
    08:00 +19°C° 0.1 mm 4 mps 768 mmHg 69%
    09:00 +21°C° 0.1 mm 4 mps 768 mmHg 64%
    10:00 +23°C° 0.1 mm 4 mps 768 mmHg 59%
    11:00 +23°C° 0.2 mm 4 mps 768 mmHg 57%
    12:00 +25°C° 0.2 mm 3 mps 768 mmHg 56%
    13:00 +26°C° 0.2 mm 3 mps 768 mmHg 54%
    14:00 +25°C° 0.7 mm 3 mps 768 mmHg 59%
    15:00 +24°C° 0.7 mm 3 mps 767 mmHg 64%
    16:00 +24°C° 0.7 mm 3 mps 767 mmHg 69%
    17:00 +23°C° 0.3 mm 2 mps 767 mmHg 74%
    18:00 +21°C° 0.3 mm 2 mps 767 mmHg 79%
    19:00 +21°C° 0.3 mm 1 mps 767 mmHg 84%
    20:00 +20°C° 0 mm 1 mps 767 mmHg 87%
    21:00 +18°C° 0 mm 1 mps 768 mmHg 90%
    22:00 +16°C° 0 mm 1 mps 768 mmHg 93%
    23:00 +16°C° 0 mm 2 mps 768 mmHg 94%

    27 May, Sunday

    Time Temperature Precipitation Wind Pressure Humidity
    00:00 +15°C° 0 mm 2 mps 768 mmHg 95%
    01:00 +14°C° 0 mm 3 mps 768 mmHg 96%
    02:00 +14°C° 0 mm 3 mps 768 mmHg 96%
    03:00 +14°C° 0 mm 3 mps 768 mmHg 96%
    04:00 +14°C° 0 mm 4 mps 768 mmHg 97%
    05:00 +15°C° 0.2 mm 5 mps 768 mmHg 93%
    06:00 +16°C° 0.2 mm 5 mps 768 mmHg 88%
    07:00 +17°C° 0.2 mm 6 mps 768 mmHg 84%
    08:00 +20°C° 0.1 mm 6 mps 768 mmHg 76%
    09:00 +21°C° 0.1 mm 6 mps 768 mmHg 67%
    10:00 +22°C° 0.1 mm 6 mps 769 mmHg 58%
    11:00 +23°C° 0 mm 6 mps 769 mmHg 55%
    12:00 +24°C° 0 mm 6 mps 769 mmHg 51%
    13:00 +24°C° 0 mm 6 mps 769 mmHg 48%
    14:00 +24°C° 0 mm 6 mps 768 mmHg 49%
    15:00 +24°C° 0 mm 6 mps 768 mmHg 51%
    16:00 +23°C° 0 mm 6 mps 768 mmHg 52%
    17:00 +22°C° 0 mm 6 mps 768 mmHg 55%
    18:00 +21°C° 0 mm 6 mps 768 mmHg 58%
    19:00 +20°C° 0 mm 6 mps 769 mmHg 61%
    20:00 +19°C° 0 mm 6 mps 769 mmHg 64%
    21:00 +17°C° 0 mm 6 mps 769 mmHg 67%
    22:00 +16°C° 0 mm 6 mps 769 mmHg 69%
    23:00 +16°C° 0 mm 6 mps 769 mmHg 71%

    28 May, Monday

    Time Temperature Precipitation Wind Pressure Humidity
    00:00 +15°C° 0 mm 6 mps 769 mmHg 73%
    01:00 +15°C° 0 mm 6 mps 769 mmHg 75%
    02:00 +14°C° 0 mm 6 mps 769 mmHg 75%
    03:00 +14°C° 0 mm 6 mps 769 mmHg 75%
    04:00 +14°C° 0 mm 6 mps 769 mmHg 75%
    05:00 +15°C° 0 mm 6 mps 769 mmHg 74%
    06:00 +16°C° 0 mm 6 mps 769 mmHg 73%
    07:00 +17°C° 0 mm 6 mps 769 mmHg 71%
    08:00 +20°C° 0.1 mm 7 mps 769 mmHg 67%
    09:00 +21°C° 0.1 mm 7 mps 769 mmHg 63%
    10:00 +23°C° 0.1 mm 7 mps 769 mmHg 59%
    11:00 +23°C° 0 mm 7 mps 769 mmHg 57%
    12:00 +23°C° 0 mm 7 mps 768 mmHg 56%
    13:00 +24°C° 0 mm 7 mps 768 mmHg 54%
    14:00 +23°C° 0 mm 7 mps 768 mmHg 55%
    15:00 +23°C° 0 mm 7 mps 768 mmHg 56%
    16:00 +23°C° 0 mm 7 mps 768 mmHg 57%
    17:00 +22°C° 0 mm 7 mps 768 mmHg 61%
    18:00 +21°C° 0 mm 6 mps 768 mmHg 65%
    19:00 +20°C° 0 mm 6 mps 767 mmHg 69%
    20:00 +19°C° 0.1 mm 6 mps 768 mmHg 72%
    21:00 +17°C° 0.1 mm 6 mps 768 mmHg 76%
    22:00 +16°C° 0.1 mm 6 mps 768 mmHg 80%
    23:00 +16°C° 0.1 mm 5 mps 768 mmHg 82%

    29 May, Tuesday

    Time Temperature Precipitation Wind Pressure Humidity
    00:00 +15°C° 0.1 mm 5 mps 767 mmHg 84%
    01:00 +15°C° 0.1 mm 5 mps 767 mmHg 85%
    02:00 +15°C° 0.2 mm 5 mps 767 mmHg 88%
    03:00 +15°C° 0.2 mm 4 mps 767 mmHg 90%
    04:00 +15°C° 0.2 mm 4 mps 767 mmHg 92%
    05:00 +17°C° 0.1 mm 4 mps 767 mmHg 89%
    06:00 +18°C° 0.1 mm 4 mps 767 mmHg 86%
    07:00 +20°C° 0.1 mm 5 mps 767 mmHg 83%
    08:00 +21°C° 0 mm 5 mps 767 mmHg 78%
    09:00 +22°C° 0 mm 5 mps 767 mmHg 73%
    10:00 +23°C° 0 mm 5 mps 767 mmHg 68%
    11:00 +22°C° 0.1 mm 5 mps 767 mmHg 69%
    12:00 +22°C° 0.1 mm 5 mps 766 mmHg 71%
    13:00 +21°C° 0.1 mm 5 mps 766 mmHg 73%
    14:00 +21°C° 0.1 mm 5 mps 766 mmHg 74%
    15:00 +21°C° 0.1 mm 5 mps 766 mmHg 76%
    16:00 +20°C° 0.1 mm 5 mps 766 mmHg 77%
    17:00 +20°C° 0.1 mm 5 mps 765 mmHg 77%
    18:00 +20°C° 0.1 mm 5 mps 765 mmHg 77%
    19:00 +20°C° 0.1 mm 5 mps 765 mmHg 76%
    20:00 +19°C° 0.6 mm 4 mps 765 mmHg 82%
    21:00 +18°C° 0.6 mm 4 mps 765 mmHg 87%
    22:00 +15°C° 0.6 mm 4 mps 765 mmHg 92%
    23:00 +15°C° 0.8 mm 4 mps 765 mmHg 93%
    Show more